Location: Spruce Knob
(38.6995°N, 79.5330°W)
Time: 04:24:32
(UTC-05:00)

Tiros 1 - All Passes

Search period start: 28 January 2022 00:00
Search period end: 07 February 2022 00:00
Orbit: 629 x 664 km, 48.4° (Epoch: 27 January)

Date Brightness Start Highest point End Pass type
(mag) Time Alt. Az. Time Alt. Az. Time Alt. Az.
28 Jan - 01:32:43 10° NW 01:36:51 28° N 01:40:56 10° ENE night (unlit)
28 Jan - 03:14:56 10° NW 03:19:42 65° NNE 03:24:23 10° ESE night (unlit)
28 Jan - 04:57:39 10° WNW 05:01:36 26° SW 05:05:30 10° S visible
28 Jan - 20:49:52 10° SW 20:54:32 54° SE 20:59:13 10° ENE visible
28 Jan - 22:32:20 10° W 22:36:52 41° NNW 22:41:25 10° NE night (unlit)
29 Jan - 00:16:00 10° WNW 00:19:59 25° N 00:23:58 10° NE night (unlit)
29 Jan - 01:58:41 10° NW 02:03:09 37° NNE 02:07:33 10° E night (unlit)
29 Jan - 03:40:51 10° WNW 03:45:35 64° SW 03:50:15 10° SE night (unlit)
29 Jan - 05:25:53 10° WSW 05:27:02 11° SW 05:28:10 10° SW visible
29 Jan - 19:34:52 10° S 19:38:33 22° SE 19:42:14 10° E visible
29 Jan - 21:15:34 10° WSW 21:20:22 75° NNW 21:25:12 10° NE visible
29 Jan - 22:58:56 10° WNW 23:03:08 29° NNW 23:07:20 10° NE night (unlit)
30 Jan - 00:42:17 10° NW 00:46:23 27° N 00:50:27 10° ENE night (unlit)
30 Jan - 02:24:31 10° NW 02:29:16 61° NNE 02:33:57 10° ESE night (unlit)
30 Jan - 04:07:08 10° WNW 04:11:14 29° SW 04:15:17 10° SSE night (unlit)
30 Jan - 19:59:31 10° SW 20:04:08 49° SE 20:08:46 10° ENE visible
30 Jan - 21:41:51 10° W 21:46:26 43° NNW 21:51:00 10° NE visible
30 Jan - 23:25:31 10° WNW 23:29:31 25° N 23:33:30 10° NE night (unlit)
31 Jan - 01:08:16 10° NW 01:12:41 35° NNE 01:17:04 10° E night (unlit)
31 Jan - 02:50:25 10° WNW 02:55:11 70° SW 02:59:53 10° SE night (unlit)
31 Jan - 04:34:49 10° WSW 04:36:41 12° SW 04:38:33 10° SSW night (unlit)
31 Jan - 18:44:42 10° S 18:48:10 20° SE 18:51:40 10° E visible
31 Jan - 20:25:09 10° WSW 20:29:56 81° NNW 20:34:47 10° NE visible
31 Jan - 22:08:26 10° WNW 22:12:40 30° NNW 22:16:54 10° NE night (unlit)
31 Jan - 23:51:50 10° NW 23:55:54 27° N 23:59:58 10° ENE night (unlit)
01 Feb - 01:34:06 10° NW 01:38:50 57° NNE 01:43:31 10° ESE night (unlit)
01 Feb - 03:16:38 10° WNW 03:20:52 32° SW 03:25:02 10° SSE night (unlit)
01 Feb - 19:09:12 10° SSW 19:13:44 45° SE 19:18:19 10° ENE visible
01 Feb - 20:51:22 10° W 20:55:59 45° NNW 21:00:36 10° NE visible
01 Feb - 22:35:01 10° WNW 22:39:02 25° N 22:43:02 10° NE night (unlit)
02 Feb - 00:17:50 10° NW 00:22:14 34° NNE 00:26:35 10° E night (unlit)
02 Feb - 01:59:58 10° WNW 02:04:46 76° SW 02:09:30 10° SE night (unlit)
02 Feb - 03:43:58 10° W 03:46:20 14° SW 03:48:41 10° SSW night (unlit)
02 Feb - 17:54:33 10° S 17:57:48 18° SE 18:01:04 10° E daylight
02 Feb - 19:34:44 10° WSW 19:39:32 86° NNW 19:44:21 10° ENE visible
02 Feb - 21:17:55 10° WNW 21:22:12 31° NNW 21:26:28 10° NE visible
02 Feb - 23:01:22 10° NW 23:05:26 26° N 23:09:29 10° ENE night (unlit)
03 Feb - 00:43:41 10° NW 00:48:23 53° NNE 00:53:04 10° ESE night (unlit)
03 Feb - 02:26:08 10° WNW 02:30:28 35° SW 02:34:46 10° SSE night (unlit)
03 Feb - 18:18:53 10° SSW 18:23:21 41° SE 18:27:51 10° ENE visible
03 Feb - 20:00:54 10° W 20:05:31 48° NNW 20:10:11 10° NE visible
03 Feb - 21:44:32 10° WNW 21:48:33 26° N 21:52:35 10° NE visible
03 Feb - 23:27:25 10° NW 23:31:46 33° NNE 23:36:06 10° E night (unlit)
04 Feb - 01:09:32 10° WNW 01:14:21 82° SW 01:19:07 10° SE night (unlit)
04 Feb - 02:53:14 10° W 02:55:58 15° SW 02:58:41 10° SSW night (unlit)
04 Feb - 17:04:28 10° S 17:07:27 17° SE 17:10:26 10° E daylight
04 Feb - 18:44:20 10° SW 18:49:06 88° SE 18:53:55 10° ENE visible
04 Feb - 20:27:26 10° W 20:31:44 32° NNW 20:36:03 10° NE visible
04 Feb - 22:10:55 10° NW 22:14:57 26° N 22:18:59 10° ENE night (unlit)
04 Feb - 23:53:16 10° NW 23:57:57 50° NNE 00:02:36 10° ESE night (unlit)
05 Feb - 01:35:39 10° WNW 01:40:05 38° SW 01:44:29 10° SSE night (unlit)
05 Feb - 17:28:35 10° SSW 17:32:57 37° SE 17:37:22 10° ENE daylight
05 Feb - 19:10:26 10° WSW 19:15:05 50° NNW 19:19:46 10° NE visible
05 Feb - 20:54:02 10° WNW 20:58:04 26° N 21:02:07 10° NE visible
05 Feb - 22:36:59 10° NW 22:41:18 32° NNE 22:45:36 10° ENE night (unlit)
06 Feb - 00:19:06 10° WNW 00:23:56 89° SSW 00:28:43 10° SE night (unlit)
06 Feb - 02:02:33 10° W 02:05:36 17° SW 02:08:38 10° S night (unlit)
06 Feb - 16:14:25 10° SSE 16:17:05 15° SE 16:19:45 10° E daylight
06 Feb - 17:53:56 10° SW 17:58:41 81° SE 18:03:29 10° ENE daylight
06 Feb - 19:36:56 10° W 19:41:16 33° NNW 19:45:37 10° NE visible
06 Feb - 21:20:27 10° NW 21:24:28 26° N 21:28:29 10° ENE visible
06 Feb - 23:02:51 10° NW 23:07:31 47° NNE 23:12:08 10° E night (unlit)
